Location: Llad�
(42.2474°N, 2.8123°E)
Time: 16:29:01
(UTC+00:00)

Daily predictions for brighter satellites

Satellite Brightness Start Highest point End
(mag) Time Altitude Azimuth Time Altitude Azimuth Time Altitude Azimuth
VEP-3 4.2 19:54:47 10° SSW 19:58:12 16° S 20:02:08 10° SE
Cosmos 2322 Rocket 2.2 19:54:07 10° SSW 19:59:43 82° ESE 20:05:22 10° NNE
Cosmos 2298 Rocket 4.3 19:55:37 10° NNW 20:00:57 73° WSW 20:06:14 10° S
NOSS 7 (D) 4.1 19:59:08 10° SSW 20:01:56 44° ESE 20:04:34 10° NE
SPOT 3 Rocket 3.6 19:56:48 10° SSE 20:02:00 80° ENE 20:07:14 10° NNW
Cosmos 2237 4.5 19:57:04 10° S 20:02:31 48° ESE 20:08:00 10° NE
MOS 1 Rocket 4.4 19:58:42 10° N 20:03:17 52° WNW 20:08:07 10° SSW
OAO 2 Rocket 4.3 19:58:59 10° SW 20:03:32 30° SSE 20:08:07 10° ESE
SJ-6B 4.0 20:02:03 10° S 20:05:50 44° W 20:09:43 10° NNW
Cosmos 1461 3.4 20:08:24 10° NW 20:13:08 74° WSW 20:17:50 10° SSE
Cosmos 1455 3.0 20:09:39 10° N 20:13:12 34° ENE 20:16:44 10° SE
Cosmos 1703 4.1 20:15:52 10° SSE 20:19:16 31° E 20:22:43 10° NNE
COSMOS 2428 4.0 20:16:05 10° SE 20:19:59 19° E 20:23:53 10° NE
Geosat 4.1 20:15:31 10° SSE 20:20:32 79° WSW 20:25:36 10° NNW
Cosmos 1812 Rocket 3.5 20:19:12 10° N 20:23:32 69° E 20:27:50 10° SSE
Cosmos 2322 4.3 20:18:30 10° S 20:23:37 36° ESE 20:28:48 10° NE
Delta 2 Rocket 3.9 20:23:06 10° WSW 20:26:00 26° S 20:28:09 14° SE
Cosmos 1602 Rocket 3.7 20:23:33 10° S 20:27:58 80° W 20:32:26 10° N
Cosmos 2263 Rocket 3.6 20:28:06 10° NW 20:33:02 33° WSW 20:37:58 10° SSW
MetOp-B 4.2 20:27:52 10° SSE 20:33:10 69° ENE 20:38:30 10° N
Atlas Centaur 2 3.4 20:29:00 10° SW 20:33:52 28° S 20:38:47 13° ESE
Nadezhda 1 Rocket 4.1 20:27:50 10° N 20:34:17 77° E 20:40:39 10° SSE
Terra 3.6 20:31:43 10° ESE 20:34:53 18° ENE 20:38:05 10° NNE
Cosmos 2219 Rocket 3.0 20:31:09 10° SSE 20:35:53 29° ESE 20:40:39 10° NE
Cosmos 2360 Rocket 2.2 20:31:57 10° SSW 20:37:35 87° ESE 20:43:17 10° NNE
IGS 5A 3.8 20:35:34 14° SE 20:38:53 50° ENE 20:42:56 10° N
IRIS 3.9 20:38:19 10° WSW 20:41:33 57° S 20:43:18 17° E
DELTA 2 R/B (1) 4.5 20:37:50 10° SSW 20:42:22 26° SSE 20:46:56 10° E
Cosmos 2333 Rocket 2.7 20:40:23 10° S 20:45:34 38° ESE 20:50:50 10° NE
Resurs 01 Rocket 2.5 20:46:25 10° S 20:50:41 47° W 20:54:58 10° NNW
Cosmos 1315 Rocket 4.4 20:49:08 10° NNE 20:52:22 22° ENE 20:54:13 16° ESE
Cosmos 1818 3.9 20:47:30 10° SW 20:52:54 71° NW 20:58:22 10° NNE
Cosmos 773 Rocket 4.1 20:50:29 10° S 20:55:40 58° ESE 21:00:52 10° NNE
Cosmos-2242 3.0 20:51:44 10° N 20:56:05 69° E 20:59:06 19° SSE
SL-16 R/B 4.2 20:51:45 10° WSW 20:56:46 31° NW 21:01:48 10° N
ERS-1 Rocket 3.4 20:56:51 20° SE 21:00:11 49° ENE 21:05:02 10° N
Cosmos 2221 4.4 20:57:52 10° NNE 21:00:48 17° ENE 21:02:29 14° E
GEOS 3 Rocket 3.8 20:59:52 10° NE 21:05:18 83° NW 21:10:40 10° SW
USA 215 3.2 21:02:11 10° NE 21:08:44 69° SE 21:15:13 10° SW
Cosmos 2278 Rocket 3.8 21:04:53 10° N 21:09:26 24° NE 21:13:09 13° E
ATLAS 5 CENTAUR R/B 2.4 21:05:45 10° SW 21:09:45 51° NW 21:14:13 10° NNE
Meteor 1-11 4.2 21:05:32 14° S 21:10:20 67° E 21:15:59 10° NNE
USA 245 3.4 21:08:35 22° S 21:10:29 61° W 21:14:22 10° NNW
Cosmos 1758 Rocket 4.3 21:09:06 10° SSW 21:13:30 53° W 21:17:55 10° N
Cosmos 1844 Rocket 2.7 21:09:02 10° NNW 21:14:36 75° WSW 21:18:16 22° SSE
Cosmos 1400 Rocket 2.9 21:11:25 10° NNW 21:15:23 71° W 21:17:42 23° S
SPOT 5 3.1 21:13:57 25° SE 21:16:52 61° ENE 21:21:39 10° N
Spot 2 Rocket 4.0 21:16:44 16° S 21:20:42 57° W 21:25:45 10° NNW
OAO 3 Rocket 4.3 21:18:44 10° WSW 21:22:54 28° SSW 21:23:57 26° S
USA 81 4.0 21:19:51 22° S 21:23:20 72° E 21:28:37 10° N
Landsat 7 4.4 21:21:48 17° S 21:25:15 53° W 21:29:55 10° NNW
Cosmos 2058 4.4 21:25:00 20° E 21:25:22 21° E 21:28:28 10° NE
BREEZE M DEB (TANK) 1.8 21:25:13 10° NW 21:27:34 59° NNE 21:27:39 58° NE
Cosmos 2181 Rocket 4.0 21:24:04 10° N 21:30:27 80° E 21:34:15 25° SSE
Cosmos 2074 Rocket 4.3 21:29:15 26° SSE 21:32:28 49° E 21:38:25 10° NNE
SPOT 1/Viking Rocket 4.0 21:31:53 20° S 21:35:19 55° W 21:40:24 10° NNW
Cosmos 1953 Rocket 4.1 21:33:11 15° SSW 21:36:37 55° W 21:40:53 10° N
Cosmos 1680 Rocket 4.5 21:35:41 27° ESE 21:36:38 29° E 21:41:08 10° NE
USA 267 4.0 21:34:05 12° E 21:39:55 47° NNE 21:46:09 10° NW
Cosmos 2084 3.8 21:42:09 10° NNW 21:46:34 60° NE 21:48:05 37° ESE
OAO 2 Rocket 3.9 21:42:54 10° WSW 21:47:48 38° S 21:48:29 36° SSE
Cosmos 1842 Rocket 3.6 21:43:33 10° N 21:47:53 63° E 21:49:02 44° SE
JB-3 4.4 21:45:49 10° NNE 21:49:35 52° E 21:49:57 50° ESE
MTI 3.9 21:50:27 10° NNE 21:53:10 57° ENE 21:53:10 57° ENE
Cosmos 923 Rocket 4.1 21:52:20 38° SSE 21:54:00 54° ESE 21:59:09 10° NNE
Cosmos 1825 4.1 21:58:09 17° ENE 21:58:09 17° ENE 22:00:08 10° NE
ATLAS CENTAUR R/B 0.9 21:54:22 10° NNW 21:58:03 80° ENE 21:58:26 69° ESE
Cosmos 1980 3.8 21:56:55 37° SSE 21:58:45 52° ESE 22:04:14 10° NNE
Cosmos 967 Rocket 4.4 21:55:33 16° SSW 22:00:52 77° ESE 22:07:21 10° NE
COSMOS 2428 3.2 21:58:06 10° SW 22:03:41 61° WNW 22:09:20 10° NNE
Cosmos 1869 3.2 22:04:49 10° N 22:08:50 89° E 22:09:22 66° S
NOSS 0 Rocket 3.8 22:07:32 27° SSW 22:11:02 80° ESE 22:17:14 10° NNE
Terra 2.3 22:10:34 35° SSW 22:12:13 53° W 22:16:53 10° NNW
NOSS 3-4 (A) 4.4 22:08:24 10° NNW 22:15:13 52° NE 22:19:47 24° ESE
NOSS 3-4 (C) 4.4 22:08:31 10° NNW 22:15:19 51° NE 22:19:55 24° ESE
Cosmos 2237 Rocket 2.1 22:14:58 40° S 22:16:59 70° ESE 22:22:41 10° NNE
Genesis I 3.8 22:18:35 43° ENE 22:18:35 43° ENE 22:21:34 10° NE
Cosmos 2344 3.6 22:16:02 32° S 22:19:31 56° ESE 22:27:02 10° NE
Cosmos 2219 Rocket 3.4 22:14:23 10° SW 22:19:38 41° WNW 22:24:55 10° NNE
Elektron 1 4.0 22:21:21 85° W 22:21:24 86° NW 22:25:54 10° NE
BREEZE-M R/B 3.8 22:13:03 10° WNW 22:22:19 60° SW 22:23:37 47° S
Atlas Centaur 2 3.7 22:17:03 10° WSW 22:21:21 25° SSW 22:21:21 25° SSW
DELTA 2 R/B (1) 3.5 22:22:46 10° WSW 22:28:13 57° SSE 22:30:03 39° ESE
Cosmos 1315 Rocket 4.3 22:25:22 10° NNW 22:28:54 28° W 22:29:55 25° WSW
Cosmos 2333 Rocket 3.8 22:24:47 10° WSW 22:29:52 33° NW 22:35:01 10° N
Cosmos 2184 Rocket 4.3 22:27:11 27° SSW 22:30:36 62° W 22:36:51 10° N
Thor Agena Rocket 3.4 22:27:17 10° NNE 22:32:23 69° ESE 22:33:18 56° SSE
Cosmos 2221 3.3 22:34:26 10° NNW 22:38:34 41° W 22:39:20 37° WSW
BREEZE-M DEB (TANK) 3.4 22:37:17 10° WNW 22:40:42 28° N 22:41:22 24° NNE
Cosmos 1892 3.4 22:41:59 44° W 22:42:16 45° W 22:45:56 10° N
Iridium 2 3.8 22:38:55 10° N 22:42:26 71° NNE 22:42:26 71° NNE
Cosmos 1371 Rocket 4.2 22:37:54 10° NNW 22:43:09 63° ENE 22:44:15 50° ESE
ATLAS 2AS CENTAUR R/B 3.0 22:35:45 10° NNW 22:43:17 68° NE 22:46:25 35° ESE
Cosmos 1766 Rocket 4.4 22:44:24 37° E 22:44:24 37° E 22:48:10 10° NNE
EO 1 Del DPAF 3.3 22:41:37 10° NNE 22:44:59 70° NNE 22:44:59 70° NNE
Okean 3 Rocket 4.0 22:47:03 47° E 22:47:03 47° E 22:51:09 10° NNE
MOS 1-B Rocket 4.3 22:39:50 10° NNE 22:47:29 81° ESE 22:49:56 43° S
Cosmos 2112 Rocket 4.1 22:48:24 45° SW 22:50:02 75° WNW 22:55:25 10° NNE
Aureole 2 Rocket 4.4 22:47:38 10° N 22:48:59 19° NNE 22:48:59 19° NNE
USA 215 4.4 22:45:23 10° NE 22:51:30 43° NNW 22:57:36 10° W
Cosmos 1606 3.8 22:49:05 10° N 22:52:19 35° ENE 22:52:19 35° ENE
Cosmos 2278 Rocket 2.4 22:48:20 10° NNW 22:53:52 56° WSW 22:54:59 48° SSW
Cosmos 158 Rocket 4.1 22:52:57 44° SW 22:54:17 61° WNW 22:59:09 10° NNE
Cosmos 2297 4.5 22:49:49 10° NNW 22:55:19 44° ENE 22:57:11 34° ESE
Cosmos 2366 rocket 4.5 22:56:35 41° SE 22:57:58 47° E 23:04:01 10° NNE
Spot 4 3.7 22:59:07 67° SSW 22:59:35 74° WSW 23:04:23 10° NNW
Lacrosse 5 rocket 4.3 22:58:17 10° N 22:59:58 12° NNE 23:01:36 10° NE
SL-16 R/B 2.2 23:00:46 55° SE 23:01:20 58° ESE 23:06:55 10° NNE
Cosmos 1943 Rocket 3.9 22:57:03 10° N 23:01:44 26° NE 23:04:40 17° E
TIMED 4.4 23:01:49 78° W 23:01:55 79° WNW 23:06:18 10° NNE
Cosmos 2058 4.3 23:01:10 27° W 23:02:04 30° WNW 23:05:46 10° NNW
Cosmos 1408 3.6 23:03:24 38° WNW 23:03:24 38° WNW 23:06:30 10° N
Gblst 52 Del rocket 4.4 23:00:27 10° WNW 23:06:19 63° SW 23:07:28 54° S
Cosmos 2056 Rocket 3.5 23:01:40 10° NNW 23:07:08 87° ENE 23:07:58 65° SSE
Cosmos 2341 Rocket 4.0 23:11:46 50° SSW 23:13:32 80° W 23:19:47 10° N
Meteor 2-3 Rocket 3.8 23:21:02 54° SE 23:21:43 58° E 23:27:18 10° NNE
USA 267 3.3 23:21:24 50° S 23:22:48 60° SW 23:29:17 10° NW
IRIDIUM 104 4.2 23:23:26 71° SSE 23:23:58 82° E 23:29:13 10° N
Cosmos 2151 3.6 23:23:52 47° W 23:23:59 47° WNW 23:28:08 10° N
Helios 1A 3.6 23:24:53 45° ENE 23:24:53 45° ENE 23:28:48 10° N
SL-8 Rocket 4.0 23:30:59 53° SSW 23:32:30 76° W 23:38:41 10° N
Cosmos 1825 3.7 23:32:56 28° WNW 23:32:56 28° WNW 23:36:07 10° NNW
IRIDIUM 114 4.2 23:32:35 71° SSW 23:33:08 82° W 23:38:23 10° N
Cosmos 1340 3.4 23:34:23 51° NNE 23:34:23 51° NNE 23:37:16 10° N
Meteor 1-26 Rocket 4.4 23:28:08 10° N 23:34:07 67° ENE 23:35:20 53° SE
Cosmos 1452 Rocket 3.9 23:28:58 10° N 23:34:09 54° ENE 23:35:06 47° ESE
CZ-4C R/B 4.3 23:28:07 10° NNW 23:34:24 33° NE 23:41:31 10° ESE
ALOS 2 2.8 23:35:27 59° W 23:35:27 59° W 23:39:32 10° NNW
Cosmos 1408 Rocket 3.6 23:35:56 75° NE 23:35:56 75° NE 23:40:01 10° N
COSMOS 2455 3.6 23:29:56 10° NNW 23:35:46 47° NE 23:38:24 30° ESE
Meteor 2-12 Rocket 4.4 23:37:27 57° SSW 23:38:48 82° W 23:44:58 10° N
Cosmos 1933 3.7 23:34:48 10° N 23:38:13 62° NNW 23:38:13 62° NNW
Cosmos 1151 Rocket 3.2 23:36:05 10° NNW 23:40:03 68° NW 23:40:03 68° NW
IRIDIUM 103 4.3 23:41:42 62° SW 23:42:17 68° W 23:47:30 10° N
Cosmos 44 3.6 23:43:37 46° WNW 23:44:06 49° NW 23:48:23 10° NNE
Cosmos 1500 Rocket 4.2 23:44:49 47° ENE 23:44:49 47° ENE 23:48:42 10° NNE
Cosmos 2369 Rocket 3.3 23:41:15 10° N 23:46:28 38° ENE 23:48:49 26° ESE
Cosmos 1727 Rocket 4.0 23:40:22 10° N 23:46:37 75° E 23:48:04 54° SSE
GP-B 3.7 23:44:35 10° N 23:48:50 47° W 23:48:50 47° W
Cosmos 371 Rocket 3.1 23:45:32 10° NNW 23:50:25 83° WSW 23:50:25 83° WSW
Helios 1B rocket 3.5 23:52:11 10° NNE 23:55:23 35° ENE 23:55:23 35° ENE
